ONEWEB-0339 (49205 NORAD) Tracking and Keplerian Element Data

This shows tracking and keplerian element data for the satellite.

Feedback or suggestion? Click here.




ElementValue
Catalog49205
NameONEWEB-0339
Epoch Orbit361
Epoch Day287.91667824
Epoch Year2021
RAAN317.5662
Inclination87.2133
Eccentricity0.0018824
Argument of Perigee183.4804
Mean Anonmoly83.9609
Mean Motion14.91635277
Decay Rate-0.01299709
L11 49205U 21083V 21287.91667824 -.01299709 00000-0 -14004+0 0 9994
L22 49205 87.2133 317.5662 0018824 183.4804 83.9609 14.91635277 3617

Live tracking and technical data element details for ONEWEB-0339 (NORAD 49205). ONEWEB-0339 can be tracked NOW for your location showing map with azimuth and elevation plus other details from your city location.

Track the satellite on the map from your city or location and see movement details for azimuth, elevation, latitude, longitude, range, height, and movement on the map or in text.







IsCatalogInMostPopularTable: catalog: 49205, numindb: 19
Update: records affected: 1



GetName: 49205 ONEWEB-0339

Hit Count: updated at: Tue, 19 Oct 2021 08:54:43 GMT